Location: Newark
(7.0858°N, 171.3717°E)
Time: 14:42:35
(UTC+00:00)

Transit 4A - All Passes

Search period start: 26 November 2020 00:00
Search period end: 06 December 2020 00:00
Orbit: 862 x 982 km, 66.8° (Epoch: 25 November)

Date Brightness Start Highest point End Pass type
(mag) Time Alt. Az. Time Alt. Az. Time Alt. Az.
26 Nov - 06:17:18 10° NNE 06:21:25 19° ENE 06:25:28 10° ESE daylight
26 Nov - 08:02:04 10° NW 08:07:37 37° WSW 08:13:01 10° S visible
26 Nov - 19:16:50 10° S 19:22:44 52° ESE 19:28:47 10° NE daylight
26 Nov - 21:06:05 10° W 21:09:02 14° WNW 21:12:02 10° NW daylight
27 Nov - 06:25:25 10° N 06:30:48 31° ENE 06:36:01 10° SE visible
27 Nov - 08:12:21 10° WNW 08:16:49 21° WSW 08:21:12 10° SSW visible
27 Nov - 19:25:51 10° SSW 19:31:58 87° ESE 19:38:17 10° NNE daylight
28 Nov - 06:34:08 10° N 06:40:07 54° ENE 06:45:55 10° SE visible
28 Nov - 08:24:03 10° W 08:26:01 12° WSW 08:27:59 10° SW visible
28 Nov - 17:53:10 10° SE 17:55:20 12° ESE 17:57:30 10° E visible
28 Nov - 19:35:17 10° SSW 19:41:15 56° WNW 19:47:24 10° N daylight
29 Nov - 06:43:15 10° NNW 06:49:23 89° WSW 06:55:21 10° SSE visible
29 Nov - 18:00:01 10° SSE 18:04:32 22° ESE 18:09:09 10° ENE visible
29 Nov - 19:45:08 10° SW 19:50:35 33° WNW 19:56:10 10° N daylight
30 Nov - 05:09:45 10° NE 05:12:20 13° ENE 05:14:51 10° E daylight
30 Nov - 06:52:43 10° NNW 06:58:38 52° WSW 07:04:23 10° S visible
30 Nov - 18:08:12 10° S 18:13:46 37° ESE 18:19:27 10° NE visible
30 Nov - 19:55:38 10° WSW 19:59:57 20° WNW 20:04:21 10° NNW daylight
01 Dec - 05:17:04 10° NNE 05:21:44 22° ENE 05:26:16 10° ESE daylight
01 Dec - 07:02:37 10° NW 07:07:51 30° WSW 07:12:57 10° SSW visible
01 Dec - 18:16:57 10° S 18:22:59 63° ESE 18:29:12 10° NNE daylight
01 Dec - 20:07:50 10° W 20:09:23 11° WNW 20:10:55 10° NW daylight
02 Dec - 05:25:27 10° N 05:31:05 38° ENE 05:36:32 10° SE daylight
02 Dec - 07:13:14 10° WNW 07:17:03 17° WSW 07:20:50 10° SSW visible
02 Dec - 18:26:06 10° SSW 18:32:15 78° WNW 18:38:33 10° NNE daylight
03 Dec - 05:34:19 10° NNW 05:40:23 65° ENE 05:46:16 10° SSE daylight
03 Dec - 16:52:14 10° SE 16:55:35 15° ESE 16:58:58 10° ENE visible
03 Dec - 18:35:41 10° SW 18:41:32 46° WNW 18:47:33 10° N daylight
04 Dec - 05:43:33 10° NNW 05:49:39 74° WSW 05:55:33 10° SSE daylight
04 Dec - 16:59:47 10° SSE 17:04:47 26° ESE 17:09:54 10° NE visible
04 Dec - 18:45:45 10° SW 18:50:53 27° WNW 18:56:08 10° N daylight
05 Dec - 04:09:07 10° NNE 04:12:38 16° ENE 04:16:06 10° ESE daylight
05 Dec - 05:53:10 10° NW 05:58:52 43° WSW 06:04:26 10° S daylight
05 Dec - 17:08:12 10° S 17:14:01 45° ESE 17:19:58 10° NE visible
05 Dec - 18:56:35 10° WSW 19:00:16 16° WNW 19:04:00 10° NNW daylight
